Time,TemperatureF,DewpointF,PressureIn,WindDirection,WindDirectionDegrees,WindSpeedMPH,WindSpeedGustMPH,Humidity,HourlyPrecipIn,Conditions,Clouds,dailyrainin,SolarRadiationWatts/m^2,SoftwareType,DateUTC
2013-05-23 00:00:00,73.2,57.5,29.67,SW,217,5.0,10.0,58,0.00,BKN,,0.00,0.0,WeatherDisplay:10.37,2013-05-23 04:00:00,
2013-05-23 00:05:00,73.2,57.5,29.67,SW,227,1.0,7.0,58,0.00,BKN,,0.00,0.0,WeatherDisplay:10.37,2013-05-23 04:05:00,
2013-05-23 00:10:00,72.7,57.5,29.67,South,191,1.0,6.0,59,0.00,BKN,,0.00,0.0,WeatherDisplay:10.37,2013-05-23 04:10:00,
2013-05-23 00:15:00,72.1,57.4,29.67,South,177,1.0,4.0,60,0.00,BKN,,0.00,0.0,WeatherDisplay:10.37,2013-05-23 04:15:00,
2013-05-23 00:20:00,71.6,57.4,29.67,South,175,1.0,4.0,61,0.00,BKN,,0.00,0.0,WeatherDisplay:10.37,2013-05-23 04:20:00,
2013-05-23 00:30:00,71.1,57.9,29.68,South,183,1.0,7.0,63,0.00,BKN,,0.00,0.0,WeatherDisplay:10.37,2013-05-23 04:30:00,
2013-05-23 00:35:00,70.8,58.0,29.68,SSE,163,3.0,8.0,64,0.00,SCT,,0.00,0.0,WeatherDisplay:10.37,2013-05-23 04:35:00,
2013-05-23 00:40:00,70.3,58.4,29.68,South,176,2.0,6.0,66,0.00,SCT,,0.00,0.0,WeatherDisplay:10.37,2013-05-23 04:40:00,
2013-05-23 00:45:00,69.7,57.9,29.68,SSW,196,5.0,9.0,66,0.00,SCT,,0.00,0.0,WeatherDisplay:10.37,2013-05-23 04:45:00,
2013-05-23 00:50:00,69.6,58.2,29.68,SSW,199,3.0,10.0,67,0.00,SCT,,0.00,0.0,WeatherDisplay:10.37,2013-05-23 04:50:00,
2013-05-23 00:55:00,69.4,58.4,29.68,SSW,200,3.0,12.0,68,0.00,SCT,,0.00,0.0,WeatherDisplay:10.37,2013-05-23 04:55:00,
2013-05-23 01:00:00,69.2,58.2,29.68,SSW,201,2.0,7.0,68,0.00,SCT,,0.00,0.0,WeatherDisplay:10.37,2013-05-23 05:00:00,
2013-05-23 01:05:00,69.1,58.1,29.68,SSW,200,3.0,7.0,68,0.00,SCT,,0.00,0.0,WeatherDisplay:10.37,2013-05-23 05:05:00,
2013-05-23 01:10:00,69.1,58.1,29.68,South,191,2.0,8.0,68,0.00,SCT,,0.00,0.0,WeatherDisplay:10.37,2013-05-23 05:10:00,
2013-05-23 01:20:00,69.1,58.5,29.68,South,179,1.0,9.0,69,0.00,SCT,,0.00,0.0,WeatherDisplay:10.37,2013-05-23 05:20:00,
2013-05-23 01:25:00,68.9,58.3,29.68,South,169,0.0,6.0,69,0.00,SCT,,0.00,0.0,WeatherDisplay:10.37,2013-05-23 05:25:00,
2013-05-23 01:30:00,68.9,58.7,29.68,SSE,162,2.0,10.0,70,0.00,SCT,,0.00,0.0,WeatherDisplay:10.37,2013-05-23 05:30:00,
2013-05-23 01:40:00,68.7,58.9,29.68,South,183,6.0,12.0,71,0.00,BKN,,0.00,0.0,WeatherDisplay:10.37,2013-05-23 05:40:00,
2013-05-23 01:45:00,68.6,58.8,29.68,South,185,3.0,18.0,71,0.00,BKN,,0.00,0.0,WeatherDisplay:10.37,2013-05-23 05:45:00,
2013-05-23 01:50:00,68.4,58.6,29.68,SSW,195,5.0,18.0,71,0.00,BKN,,0.00,0.0,WeatherDisplay:10.37,2013-05-23 05:50:00,
2013-05-23 02:00:00,68.2,58.8,29.68,SSW,198,6.0,14.0,72,0.00,BKN,,0.00,0.0,WeatherDisplay:10.37,2013-05-23 06:00:00,
2013-05-23 02:05:00,68.1,59.1,29.68,SSW,196,2.0,8.0,73,0.00,BKN,,0.00,0.0,WeatherDisplay:10.37,2013-05-23 06:05:00,
2013-05-23 02:10:00,67.9,58.9,29.68,SSW,200,5.0,12.0,73,0.00,BKN,,0.00,0.0,WeatherDisplay:10.37,2013-05-23 06:10:00,
2013-05-23 02:20:00,67.7,59.5,29.68,SSW,201,3.0,8.0,75,0.00,BKN,,0.00,0.0,WeatherDisplay:10.37,2013-05-23 06:20:00,
2013-05-23 02:25:00,67.7,59.9,29.68,SSW,204,5.0,12.0,76,0.00,BKN,,0.00,0.0,WeatherDisplay:10.37,2013-05-23 06:25:00,
2013-05-23 02:30:00,67.6,60.1,29.68,SSW,205,6.0,12.0,77,0.00,BKN,,0.00,0.0,WeatherDisplay:10.37,2013-05-23 06:30:00,
2013-05-23 02:35:00,67.4,59.9,29.68,SW,225,6.0,16.0,77,0.00,OVC,,0.00,0.0,WeatherDisplay:10.37,2013-05-23 06:35:00,
2013-05-23 02:40:00,67.2,59.4,29.68,SSW,198,6.0,12.0,76,0.00,OVC,,0.00,0.0,WeatherDisplay:10.37,2013-05-23 06:40:00,
2013-05-23 02:50:00,67.0,59.2,29.68,South,185,6.0,12.0,76,0.00,OVC,,0.00,0.0,WeatherDisplay:10.37,2013-05-23 06:50:00,
2013-05-23 03:00:00,66.6,58.4,29.68,SSW,202,6.0,16.0,75,0.00,OVC,,0.00,0.0,WeatherDisplay:10.37,2013-05-23 07:00:00,
2013-05-23 03:05:00,66.6,58.8,29.68,SSW,204,8.0,15.0,76,0.00,OVC,,0.00,0.0,WeatherDisplay:10.37,2013-05-23 07:05:00,
2013-05-23 03:10:00,66.3,58.5,29.68,SSW,200,3.0,9.0,76,0.00,OVC,,0.00,0.0,WeatherDisplay:10.37,2013-05-23 07:10:00,
2013-05-23 03:15:00,66.1,58.7,29.68,South,191,3.0,7.0,77,0.00,OVC,,0.00,0.0,WeatherDisplay:10.37,2013-05-23 07:15:00,
2013-05-23 03:20:00,65.9,58.8,29.68,SSW,197,6.0,12.0,78,0.00,OVC,,0.00,0.0,WeatherDisplay:10.37,2013-05-23 07:20:00,
2013-05-23 03:30:00,65.4,59.1,29.68,SSW,199,3.0,12.0,80,0.00,OVC,,0.00,0.0,WeatherDisplay:10.37,2013-05-23 07:30:00,
2013-05-23 03:40:00,65.1,59.1,29.68,South,188,5.0,12.0,81,0.00,OVC,,0.00,0.0,WeatherDisplay:10.37,2013-05-23 07:40:00,
2013-05-23 03:50:00,64.8,59.2,29.68,SSW,195,1.0,9.0,82,0.00,OVC,,0.00,0.0,WeatherDisplay:10.37,2013-05-23 07:50:00,
2013-05-23 03:55:00,64.8,59.5,29.68,SSW,196,6.0,13.0,83,0.00,OVC,,0.00,0.0,WeatherDisplay:10.37,2013-05-23 07:55:00,
2013-05-23 04:05:00,64.6,59.7,29.67,SSW,200,3.0,12.0,84,0.00,OVC,,0.00,0.0,WeatherDisplay:10.37,2013-05-23 08:05:00,
2013-05-23 04:10:00,64.6,59.7,29.67,SSW,202,1.0,12.0,84,0.00,OVC,,0.00,0.0,WeatherDisplay:10.37,2013-05-23 08:10:00,
2013-05-23 04:20:00,64.8,59.9,29.67,South,191,3.0,8.0,84,0.00,OVC,,0.00,0.0,WeatherDisplay:10.37,2013-05-23 08:20:00,
2013-05-23 04:25:00,64.8,59.9,29.67,South,190,1.0,12.0,84,0.00,OVC,,0.00,0.0,WeatherDisplay:10.37,2013-05-23 08:25:00,
2013-05-23 04:30:00,64.8,59.9,29.68,SSW,196,2.0,12.0,84,0.00,OVC,,0.00,0.0,WeatherDisplay:10.37,2013-05-23 08:30:00,
2013-05-23 04:40:00,64.8,59.5,29.68,SSW,200,3.0,10.0,83,0.00,BKN,,0.00,0.0,WeatherDisplay:10.37,2013-05-23 08:40:00,
2013-05-23 04:50:00,64.9,59.3,29.67,SSW,192,5.0,12.0,82,0.00,BKN,,0.00,0.0,WeatherDisplay:10.37,2013-05-23 08:50:00,
2013-05-23 05:00:00,65.1,59.1,29.67,SSW,196,3.0,8.0,81,0.00,BKN,,0.00,0.0,WeatherDisplay:10.37,2013-05-23 09:00:00,
2013-05-23 05:05:00,65.2,59.2,29.67,SSW,200,5.0,15.0,81,0.00,BKN,,0.00,0.0,WeatherDisplay:10.37,2013-05-23 09:05:00,
2013-05-23 05:10:00,65.4,59.4,29.67,SSW,200,6.0,14.0,81,0.00,BKN,,0.00,0.0,WeatherDisplay:10.37,2013-05-23 09:10:00,
2013-05-23 05:20:00,65.6,59.6,29.67,SSW,195,5.0,16.0,81,0.00,BKN,,0.00,0.0,WeatherDisplay:10.37,2013-05-23 09:20:00,
2013-05-23 05:30:00,65.6,59.6,29.67,SSW,193,5.0,10.0,81,0.00,BKN,,0.00,0.0,WeatherDisplay:10.37,2013-05-23 09:30:00,
2013-05-23 05:40:00,65.6,59.6,29.67,SSW,197,6.0,14.0,81,0.00,BKN,,0.00,0.0,WeatherDisplay:10.37,2013-05-23 09:40:00,
2013-05-23 05:50:00,65.4,59.4,29.66,South,190,6.0,12.0,81,0.00,BKN,,0.00,0.0,WeatherDisplay:10.37,2013-05-23 09:50:00,
2013-05-23 06:00:00,65.2,59.2,29.67,SSW,192,6.0,15.0,81,0.00,BKN,,0.00,0.0,WeatherDisplay:10.37,2013-05-23 10:00:00,
2013-05-23 06:05:00,65.1,59.1,29.67,SSW,193,5.0,13.0,81,0.00,BKN,,0.00,0.0,WeatherDisplay:10.37,2013-05-23 10:05:00,
2013-05-23 06:10:00,65.0,59.0,29.67,South,190,7.0,14.0,81,0.00,BKN,,0.00,0.0,WeatherDisplay:10.37,2013-05-23 10:10:00,
2013-05-23 06:15:00,64.9,58.9,29.68,South,191,7.0,12.0,81,0.00,BKN,,0.00,0.0,WeatherDisplay:10.37,2013-05-23 10:15:00,
2013-05-23 06:20:00,64.8,58.8,29.68,SSW,200,6.0,13.0,81,0.00,BKN,,0.00,0.0,WeatherDisplay:10.37,2013-05-23 10:20:00,
2013-05-23 06:25:00,64.8,58.8,29.68,SSW,195,6.0,12.0,81,0.00,BKN,,0.00,0.0,WeatherDisplay:10.37,2013-05-23 10:25:00,
2013-05-23 06:30:00,64.8,58.8,29.68,SSW,192,7.0,12.0,81,0.00,BKN,,0.00,0.0,WeatherDisplay:10.37,2013-05-23 10:30:00,
2013-05-23 06:35:00,64.6,58.6,29.68,SSW,201,6.0,14.0,81,0.00,BKN,,0.00,0.0,WeatherDisplay:10.37,2013-05-23 10:35:00,
2013-05-23 06:40:00,64.6,58.6,29.68,SW,221,3.0,14.0,81,0.00,BKN,,0.00,0.0,WeatherDisplay:10.37,2013-05-23 10:40:00,
2013-05-23 06:45:00,64.4,58.4,29.68,SSW,206,6.0,15.0,81,0.00,BKN,,0.00,0.0,WeatherDisplay:10.37,2013-05-23 10:45:00,
2013-05-23 06:50:00,64.4,58.8,29.68,SSW,208,5.0,12.0,82,0.00,BKN,,0.00,0.0,WeatherDisplay:10.37,2013-05-23 10:50:00,
2013-05-23 06:55:00,64.4,58.4,29.68,SSW,211,5.0,10.0,81,0.00,BKN,,0.00,0.0,WeatherDisplay:10.37,2013-05-23 10:55:00,
2013-05-23 07:00:00,64.4,58.4,29.69,SW,214,3.0,12.0,81,0.00,BKN,,0.00,0.0,WeatherDisplay:10.37,2013-05-23 11:00:00,
2013-05-23 07:05:00,64.6,58.6,29.69,SW,215,7.0,10.0,81,0.00,BKN,,0.00,0.0,WeatherDisplay:10.37,2013-05-23 11:05:00,
2013-05-23 07:10:00,64.4,58.4,29.69,SW,221,6.0,14.0,81,0.00,BKN,,0.00,0.0,WeatherDisplay:10.37,2013-05-23 11:10:00,
2013-05-23 07:15:00,64.4,58.4,29.69,SW,230,5.0,9.0,81,0.00,BKN,,0.00,0.0,WeatherDisplay:10.37,2013-05-23 11:15:00,
2013-05-23 07:20:00,64.6,58.6,29.69,SW,225,5.0,12.0,81,0.00,BKN,,0.00,0.0,WeatherDisplay:10.37,2013-05-23 11:20:00,
2013-05-23 07:30:00,64.8,58.5,29.69,SW,218,3.0,15.0,80,0.00,BKN,,0.00,0.0,WeatherDisplay:10.37,2013-05-23 11:30:00,
2013-05-23 07:35:00,65.1,58.8,29.69,SW,215,3.0,10.0,80,0.00,BKN,,0.00,0.0,WeatherDisplay:10.37,2013-05-23 11:35:00,
2013-05-23 07:40:00,65.1,58.8,29.69,SSW,211,6.0,13.0,80,0.00,BKN,,0.00,7.0,WeatherDisplay:10.37,2013-05-23 11:40:00,
2013-05-23 07:50:00,65.1,58.8,29.70,SW,217,7.0,14.0,80,0.00,BKN,,0.00,0.0,WeatherDisplay:10.37,2013-05-23 11:50:00,
2013-05-23 07:55:00,65.1,58.8,29.70,SW,214,5.0,12.0,80,0.00,BKN,,0.00,14.0,WeatherDisplay:10.37,2013-05-23 11:55:00,
2013-05-23 08:00:00,65.1,58.8,29.71,SSW,210,6.0,12.0,80,0.00,BKN,,0.00,9.0,WeatherDisplay:10.37,2013-05-23 12:00:00,
2013-05-23 08:05:00,65.2,58.5,29.71,SSW,210,5.0,12.0,79,0.00,BKN,,0.00,0.0,WeatherDisplay:10.37,2013-05-23 12:05:00,
2013-05-23 08:10:00,65.2,58.5,29.71,SSW,213,5.0,13.0,79,0.00,BKN,,0.00,5.0,WeatherDisplay:10.37,2013-05-23 12:10:00,
2013-05-23 08:15:00,65.2,58.5,29.72,SW,216,6.0,13.0,79,0.00,BKN,,0.00,0.0,WeatherDisplay:10.37,2013-05-23 12:15:00,
2013-05-23 08:20:00,65.4,58.7,29.72,SW,217,6.0,12.0,79,0.00,BKN,,0.00,0.0,WeatherDisplay:10.37,2013-05-23 12:20:00,
2013-05-23 08:25:00,65.6,58.6,29.72,SSW,212,5.0,15.0,78,0.00,BKN,,0.00,0.0,WeatherDisplay:10.37,2013-05-23 12:25:00,
2013-05-23 08:30:00,65.6,58.6,29.71,SW,225,2.0,12.0,78,0.00,BKN,,0.00,0.0,WeatherDisplay:10.37,2013-05-23 12:30:00,
2013-05-23 08:40:00,65.6,58.9,29.71,SW,216,3.0,8.0,79,0.00,BKN,,0.00,0.0,WeatherDisplay:10.37,2013-05-23 12:40:00,
2013-05-23 08:45:00,65.8,58.8,29.72,SW,225,2.0,12.0,78,0.00,BKN,,0.00,0.0,WeatherDisplay:10.37,2013-05-23 12:45:00,
2013-05-23 08:50:00,66.2,58.8,29.72,SW,219,3.0,9.0,77,0.00,BKN,,0.00,0.0,WeatherDisplay:10.37,2013-05-23 12:50:00,
2013-05-23 08:55:00,66.7,58.9,29.72,SW,226,6.0,14.0,76,0.00,BKN,,0.00,12.0,WeatherDisplay:10.37,2013-05-23 12:55:00,
2013-05-23 09:00:00,67.1,58.9,29.72,SW,230,5.0,14.0,75,0.00,BKN,,0.00,111.0,WeatherDisplay:10.37,2013-05-23 13:00:00,
2013-05-23 09:05:00,67.4,58.4,29.72,SW,226,7.0,15.0,73,0.00,BKN,,0.00,84.0,WeatherDisplay:10.37,2013-05-23 13:05:00,
2013-05-23 09:10:00,67.8,58.4,29.72,SW,231,8.0,13.0,72,0.00,BKN,,0.00,190.0,WeatherDisplay:10.37,2013-05-23 13:10:00,
2013-05-23 09:15:00,68.2,58.4,29.72,SW,233,3.0,14.0,71,0.00,BKN,,0.00,21.0,WeatherDisplay:10.37,2013-05-23 13:15:00,
2013-05-23 09:20:00,68.7,58.5,29.72,WSW,240,3.0,13.0,70,0.00,BKN,,0.00,11.0,WeatherDisplay:10.37,2013-05-23 13:20:00,
2013-05-23 09:30:00,68.7,58.1,29.72,WSW,242,8.0,17.0,69,0.00,BKN,,0.00,84.0,WeatherDisplay:10.37,2013-05-23 13:30:00,
2013-05-23 09:35:00,69.1,57.7,29.72,WSW,247,7.0,13.0,67,0.00,BKN,,0.00,76.0,WeatherDisplay:10.37,2013-05-23 13:35:00,
2013-05-23 09:40:00,69.3,57.9,29.72,WSW,245,8.0,13.0,67,0.00,BKN,,0.00,104.0,WeatherDisplay:10.37,2013-05-23 13:40:00,
2013-05-23 09:50:00,69.6,57.7,29.72,WSW,247,3.0,12.0,66,0.00,BKN,,0.00,130.0,WeatherDisplay:10.37,2013-05-23 13:50:00,
2013-05-23 10:00:00,69.9,57.6,29.72,WSW,246,8.0,15.0,65,0.00,BKN,,0.00,169.0,WeatherDisplay:10.37,2013-05-23 14:00:00,
2013-05-23 10:05:00,70.2,57.9,29.72,WSW,242,7.0,12.0,65,0.00,BKN,,0.00,174.0,WeatherDisplay:10.37,2013-05-23 14:05:00,
2013-05-23 10:10:00,70.4,57.2,29.72,WSW,245,9.0,16.0,63,0.00,BKN,,0.00,144.0,WeatherDisplay:10.37,2013-05-23 14:10:00,
2013-05-23 10:20:00,70.4,57.6,29.72,SW,229,8.0,16.0,64,0.00,BKN,,0.00,100.0,WeatherDisplay:10.37,2013-05-23 14:20:00,
2013-05-23 10:25:00,70.4,57.6,29.72,SW,231,8.0,14.0,64,0.00,BKN,,0.00,137.0,WeatherDisplay:10.37,2013-05-23 14:25:00,
2013-05-23 10:30:00,70.2,57.0,29.72,WSW,245,8.0,20.0,63,0.00,BKN,,0.00,139.0,WeatherDisplay:10.37,2013-05-23 14:30:00,
2013-05-23 10:40:00,69.9,57.2,29.72,SW,235,6.0,12.0,64,0.00,BKN,,0.00,125.0,WeatherDisplay:10.37,2013-05-23 14:40:00,
2013-05-23 10:45:00,70.1,57.8,29.73,WSW,241,3.0,10.0,65,0.00,BKN,,0.00,130.0,WeatherDisplay:10.37,2013-05-23 14:45:00,
2013-05-23 10:50:00,70.2,58.3,29.73,SW,225,3.0,16.0,66,0.00,BKN,,0.00,127.0,WeatherDisplay:10.37,2013-05-23 14:50:00,
2013-05-23 10:55:00,70.3,58.0,29.73,SSW,207,7.0,16.0,65,0.00,BKN,,0.00,151.0,WeatherDisplay:10.37,2013-05-23 14:55:00,
2013-05-23 11:00:00,70.3,58.0,29.73,SW,222,5.0,10.0,65,0.00,BKN,,0.00,167.0,WeatherDisplay:10.37,2013-05-23 15:00:00,
2013-05-23 11:05:00,70.3,58.0,29.73,SW,228,6.0,12.0,65,0.00,BKN,,0.00,167.0,WeatherDisplay:10.37,2013-05-23 15:05:00,
2013-05-23 11:10:00,70.4,58.5,29.73,SW,230,3.0,13.0,66,0.00,BKN,,0.00,116.0,WeatherDisplay:10.37,2013-05-23 15:10:00,
2013-05-23 11:20:00,71.1,57.9,29.73,WSW,246,2.0,13.0,63,0.00,BKN,,0.00,118.0,WeatherDisplay:10.37,2013-05-23 15:20:00,
2013-05-23 11:25:00,71.3,57.2,29.73,WSW,245,7.0,16.0,61,0.00,BKN,,0.00,207.0,WeatherDisplay:10.37,2013-05-23 15:25:00,
2013-05-23 11:30:00,71.8,57.6,29.72,SW,235,6.0,12.0,61,0.00,BKN,,0.00,248.0,WeatherDisplay:10.37,2013-05-23 15:30:00,
2013-05-23 11:40:00,73.5,58.3,29.72,WSW,248,3.0,15.0,59,0.00,BKN,,0.00,165.0,WeatherDisplay:10.37,2013-05-23 15:40:00,
2013-05-23 11:45:00,73.7,57.0,29.72,SW,219,6.0,16.0,56,0.00,BKN,,0.00,144.0,WeatherDisplay:10.37,2013-05-23 15:45:00,
2013-05-23 11:50:00,73.7,57.5,29.72,SW,232,7.0,12.0,57,0.00,BKN,,0.00,132.0,WeatherDisplay:10.37,2013-05-23 15:50:00,
2013-05-23 11:55:00,73.9,57.2,29.72,WSW,243,7.0,15.0,56,0.00,BKN,,0.00,142.0,WeatherDisplay:10.37,2013-05-23 15:55:00,
2013-05-23 12:00:00,74.1,58.4,29.72,WSW,240,5.0,14.0,58,0.00,BKN,,0.00,165.0,WeatherDisplay:10.37,2013-05-23 16:00:00,
2013-05-23 12:05:00,74.1,57.4,29.72,WSW,237,5.0,12.0,56,0.00,OVC,,0.00,142.0,WeatherDisplay:10.37,2013-05-23 16:05:00,
2013-05-23 12:10:00,73.9,57.2,29.72,WSW,251,8.0,13.0,56,0.00,OVC,,0.00,137.0,WeatherDisplay:10.37,2013-05-23 16:10:00,
2013-05-23 12:20:00,74.9,57.1,29.72,SW,231,8.0,16.0,54,0.00,OVC,,0.00,394.0,WeatherDisplay:10.37,2013-05-23 16:20:00,
2013-05-23 12:30:00,76.0,57.1,29.72,SW,226,8.0,15.0,52,0.00,OVC,,0.00,218.0,WeatherDisplay:10.37,2013-05-23 16:30:00,
2013-05-23 12:40:00,76.1,57.2,29.72,SW,234,2.0,13.0,52,0.00,OVC,,0.00,46.0,WeatherDisplay:10.37,2013-05-23 16:40:00,
2013-05-23 12:45:00,75.3,56.5,29.72,SW,224,5.0,10.0,52,0.00,OVC,,0.00,67.0,WeatherDisplay:10.37,2013-05-23 16:45:00,
2013-05-23 12:50:00,74.6,56.3,29.72,SW,219,5.0,10.0,53,0.00,OVC,,0.00,158.0,WeatherDisplay:10.37,2013-05-23 16:50:00,
2013-05-23 13:00:00,74.2,56.5,29.72,WSW,255,7.0,17.0,54,0.00,OVC,,0.00,105.0,WeatherDisplay:10.37,2013-05-23 17:00:00,
2013-05-23 13:05:00,72.6,55.5,29.72,West,274,5.0,16.0,55,0.00,OVC,,0.00,0.0,WeatherDisplay:10.37,2013-05-23 17:05:00,
2013-05-23 13:10:00,71.1,55.1,29.72,West,277,5.0,12.0,57,0.00,OVC,,0.00,0.0,WeatherDisplay:10.37,2013-05-23 17:10:00,
2013-05-23 13:15:00,69.7,56.5,29.74,West,273,9.0,21.0,63,0.00,OVC,,0.00,0.0,WeatherDisplay:10.37,2013-05-23 17:15:00,
2013-05-23 13:20:00,67.6,58.2,29.74,West,272,6.0,18.0,72,0.10,RA,,0.10,0.0,WeatherDisplay:10.37,2013-05-23 17:20:00,
2013-05-23 13:30:00,64.6,60.6,29.73,West,274,6.0,12.0,87,0.00,RA,,0.11,0.0,WeatherDisplay:10.37,2013-05-23 17:30:00,
2013-05-23 13:35:00,64.1,60.8,29.73,West,263,5.0,9.0,89,0.00,BKN,,0.11,26.0,WeatherDisplay:10.37,2013-05-23 17:35:00,
2013-05-23 13:40:00,64.1,61.1,29.73,West,268,3.0,8.0,90,0.00,BKN,,0.11,0.0,WeatherDisplay:10.37,2013-05-23 17:40:00,
2013-05-23 13:45:00,64.1,61.4,29.73,West,278,3.0,6.0,91,0.00,BKN,,0.11,0.0,WeatherDisplay:10.37,2013-05-23 17:45:00,
2013-05-23 13:50:00,64.0,61.3,29.73,West,279,1.0,6.0,91,0.00,BKN,,0.11,0.0,WeatherDisplay:10.37,2013-05-23 17:50:00,
2013-05-23 14:00:00,63.8,61.4,29.74,West,265,2.0,5.0,92,0.00,BKN,,0.11,0.0,WeatherDisplay:10.37,2013-05-23 18:00:00,
2013-05-23 14:05:00,63.8,61.1,29.74,West,261,3.0,7.0,91,0.00,BKN,,0.11,25.0,WeatherDisplay:10.37,2013-05-23 18:05:00,
2013-05-23 14:10:00,63.8,61.4,29.74,West,264,0.0,7.0,92,0.00,BKN,,0.11,0.0,WeatherDisplay:10.37,2013-05-23 18:10:00,
2013-05-23 14:15:00,64.0,61.6,29.73,West,266,2.0,5.0,92,0.00,BKN,,0.11,0.0,WeatherDisplay:10.37,2013-05-23 18:15:00,
2013-05-23 14:20:00,64.0,61.6,29.73,West,265,1.0,5.0,92,0.00,BKN,,0.11,0.0,WeatherDisplay:10.37,2013-05-23 18:20:00,
2013-05-23 14:30:00,63.8,61.4,29.73,SW,234,2.0,6.0,92,0.00,BKN,,0.11,0.0,WeatherDisplay:10.37,2013-05-23 18:30:00,
2013-05-23 14:40:00,64.3,61.9,29.73,SW,215,1.0,5.0,92,0.00,BKN,,0.11,225.0,WeatherDisplay:10.37,2013-05-23 18:40:00,
2013-05-23 14:45:00,65.0,62.6,29.73,WSW,237,1.0,7.0,92,0.00,BKN,,0.11,227.0,WeatherDisplay:10.37,2013-05-23 18:45:00,
2013-05-23 14:50:00,65.4,62.7,29.73,WSW,237,6.0,10.0,91,0.00,BKN,,0.11,70.0,WeatherDisplay:10.37,2013-05-23 18:50:00,
2013-05-23 15:00:00,65.6,62.3,29.73,WSW,256,3.0,8.0,89,0.00,BKN,,0.11,0.0,WeatherDisplay:10.37,2013-05-23 19:00:00,
2013-05-23 15:05:00,65.4,61.4,29.73,WSW,254,3.0,9.0,87,0.00,BKN,,0.11,0.0,WeatherDisplay:10.37,2013-05-23 19:05:00,
2013-05-23 15:10:00,65.4,61.4,29.73,WSW,246,1.0,5.0,87,0.01,RA,,0.12,42.0,WeatherDisplay:10.37,2013-05-23 19:10:00,
2013-05-23 15:15:00,65.6,61.9,29.72,WSW,241,0.0,4.0,88,0.00,RA,,0.12,51.0,WeatherDisplay:10.37,2013-05-23 19:15:00,
2013-05-23 15:20:00,65.9,62.6,29.72,WSW,242,1.0,4.0,89,0.00,BKN,,0.12,0.0,WeatherDisplay:10.37,2013-05-23 19:20:00,
2013-05-23 15:30:00,66.1,62.5,29.73,WSW,254,2.0,6.0,88,0.00,BKN,,0.12,253.0,WeatherDisplay:10.37,2013-05-23 19:30:00,
2013-05-23 15:35:00,67.0,62.6,29.73,WNW,288,5.0,13.0,86,0.00,BKN,,0.12,770.0,WeatherDisplay:10.37,2013-05-23 19:35:00,
2013-05-23 15:40:00,67.6,61.9,29.73,WNW,298,2.0,13.0,82,0.00,BKN,,0.12,343.0,WeatherDisplay:10.37,2013-05-23 19:40:00,
2013-05-23 15:45:00,67.9,60.8,29.74,WNW,299,6.0,15.0,78,0.00,BKN,,0.12,807.0,WeatherDisplay:10.37,2013-05-23 19:45:00,
2013-05-23 15:50:00,67.8,58.8,29.74,NNW,330,10.0,16.0,73,0.01,RA,,0.13,320.0,WeatherDisplay:10.37,2013-05-23 19:50:00,
2013-05-23 16:00:00,62.4,53.6,29.74,North,4,7.0,14.0,73,0.00,BKN,,0.13,345.0,WeatherDisplay:10.37,2013-05-23 20:00:00,
2013-05-23 16:05:00,60.7,52.3,29.74,North,6,6.0,12.0,74,0.00,BKN,,0.13,183.0,WeatherDisplay:10.37,2013-05-23 20:05:00,
2013-05-23 16:10:00,59.6,51.7,29.74,North,5,8.0,14.0,75,0.00,BKN,,0.13,710.0,WeatherDisplay:10.37,2013-05-23 20:10:00,
2013-05-23 16:20:00,57.0,49.1,29.75,NNE,17,6.0,17.0,75,0.00,BKN,,0.13,0.0,WeatherDisplay:10.37,2013-05-23 20:20:00,
2013-05-23 16:30:00,55.2,47.7,29.76,North,352,7.0,14.0,76,0.00,BKN,,0.13,0.0,WeatherDisplay:10.37,2013-05-23 20:30:00,
2013-05-23 16:35:00,54.5,47.4,29.76,NNW,346,7.0,13.0,77,0.00,BKN,,0.13,0.0,WeatherDisplay:10.37,2013-05-23 20:35:00,
2013-05-23 16:40:00,53.9,47.2,29.76,North,357,5.0,12.0,78,0.00,BKN,,0.13,0.0,WeatherDisplay:10.37,2013-05-23 20:40:00,
2013-05-23 16:50:00,53.5,46.8,29.77,North,352,8.0,15.0,78,0.00,BKN,,0.13,0.0,WeatherDisplay:10.37,2013-05-23 20:50:00,
2013-05-23 17:00:00,53.3,46.3,29.77,North,352,7.0,18.0,77,0.00,BKN,,0.13,172.0,WeatherDisplay:10.37,2013-05-23 21:00:00,
2013-05-23 17:05:00,53.3,46.3,29.77,NNW,339,7.0,18.0,77,0.00,BKN,,0.13,301.0,WeatherDisplay:10.37,2013-05-23 21:05:00,
2013-05-23 17:10:00,53.2,45.5,29.77,North,352,9.0,16.0,75,0.00,BKN,,0.13,141.0,WeatherDisplay:10.37,2013-05-23 21:10:00,
2013-05-23 17:20:00,52.6,45.2,29.79,North,349,9.0,16.0,76,0.00,BKN,,0.13,107.0,WeatherDisplay:10.37,2013-05-23 21:20:00,
2013-05-23 17:30:00,52.1,45.1,29.79,NNW,340,7.0,14.0,77,0.00,BKN,,0.13,84.0,WeatherDisplay:10.37,2013-05-23 21:30:00,
2013-05-23 17:35:00,51.9,44.6,29.79,NNW,347,6.0,18.0,76,0.00,OVC,,0.13,62.0,WeatherDisplay:10.37,2013-05-23 21:35:00,
2013-05-23 17:40:00,51.9,44.6,29.79,NNW,345,8.0,16.0,76,0.00,OVC,,0.13,102.0,WeatherDisplay:10.37,2013-05-23 21:40:00,
2013-05-23 17:50:00,51.9,44.9,29.80,NNW,333,6.0,12.0,77,0.00,OVC,,0.13,42.0,WeatherDisplay:10.37,2013-05-23 21:50:00,
2013-05-23 17:55:00,51.7,44.7,29.80,NNW,331,6.0,12.0,77,0.00,OVC,,0.13,139.0,WeatherDisplay:10.37,2013-05-23 21:55:00,
2013-05-23 18:00:00,51.9,44.9,29.80,NNW,330,6.0,14.0,77,0.00,OVC,,0.13,100.0,WeatherDisplay:10.37,2013-05-23 22:00:00,
2013-05-23 18:05:00,52.0,45.0,29.80,NNW,338,8.0,13.0,77,0.00,OVC,,0.13,135.0,WeatherDisplay:10.37,2013-05-23 22:05:00,
2013-05-23 18:10:00,52.0,44.7,29.80,NNW,348,6.0,15.0,76,0.00,OVC,,0.13,105.0,WeatherDisplay:10.37,2013-05-23 22:10:00,
2013-05-23 18:20:00,51.9,44.6,29.82,NNW,345,5.0,17.0,76,0.00,OVC,,0.13,0.0,WeatherDisplay:10.37,2013-05-23 22:20:00,
2013-05-23 18:30:00,51.3,44.0,29.82,NNW,339,6.0,14.0,76,0.00,OVC,,0.13,0.0,WeatherDisplay:10.37,2013-05-23 22:30:00,
2013-05-23 18:40:00,50.7,43.8,29.82,NNW,344,7.0,15.0,77,0.00,OVC,,0.13,0.0,WeatherDisplay:10.37,2013-05-23 22:40:00,
2013-05-23 18:50:00,50.2,43.6,29.83,NNW,348,7.0,17.0,78,0.00,OVC,,0.13,0.0,WeatherDisplay:10.37,2013-05-23 22:50:00,
2013-05-23 19:00:00,49.8,43.5,29.84,NNW,343,9.0,15.0,79,0.00,OVC,,0.13,0.0,WeatherDisplay:10.37,2013-05-23 23:00:00,
2013-05-23 19:05:00,49.6,43.4,29.84,NNW,338,7.0,17.0,79,0.00,OVC,,0.13,0.0,WeatherDisplay:10.37,2013-05-23 23:05:00,
2013-05-23 19:10:00,49.3,43.4,29.84,NNW,330,9.0,17.0,80,0.00,OVC,,0.13,0.0,WeatherDisplay:10.37,2013-05-23 23:10:00,
2013-05-23 19:15:00,49.2,43.3,29.84,NNW,339,7.0,16.0,80,0.00,OVC,,0.13,0.0,WeatherDisplay:10.37,2013-05-23 23:15:00,
2013-05-23 19:20:00,49.0,43.4,29.84,NNW,329,8.0,13.0,81,0.00,OVC,,0.13,0.0,WeatherDisplay:10.37,2013-05-23 23:20:00,
2013-05-23 19:30:00,48.6,43.0,29.85,NNW,333,6.0,17.0,81,0.00,OVC,,0.13,0.0,WeatherDisplay:10.37,2013-05-23 23:30:00,
2013-05-23 19:35:00,48.3,42.7,29.85,NNW,333,8.0,18.0,81,0.00,OVC,,0.13,0.0,WeatherDisplay:10.37,2013-05-23 23:35:00,
2013-05-23 19:40:00,48.1,42.5,29.85,NNW,333,8.0,20.0,81,0.00,OVC,,0.13,0.0,WeatherDisplay:10.37,2013-05-23 23:40:00,
2013-05-23 19:50:00,47.7,42.2,29.85,NNW,334,9.0,16.0,81,0.00,OVC,,0.13,0.0,WeatherDisplay:10.37,2013-05-23 23:50:00,
2013-05-23 19:55:00,47.6,42.4,29.85,NNW,333,6.0,16.0,82,0.00,OVC,,0.13,0.0,WeatherDisplay:10.37,2013-05-23 23:55:00,
2013-05-23 20:00:00,47.6,42.7,29.86,NNW,327,6.0,16.0,83,0.00,OVC,,0.13,0.0,WeatherDisplay:10.37,2013-05-24 00:00:00,
2013-05-23 20:05:00,47.4,42.8,29.86,NNW,330,6.0,15.0,84,0.00,OVC,,0.13,0.0,WeatherDisplay:10.37,2013-05-24 00:05:00,
2013-05-23 20:10:00,47.3,42.7,29.86,NNW,337,6.0,14.0,84,0.00,OVC,,0.13,0.0,WeatherDisplay:10.37,2013-05-24 00:10:00,
2013-05-23 20:15:00,47.3,43.0,29.87,NNW,338,6.0,12.0,85,0.00,OVC,,0.13,0.0,WeatherDisplay:10.37,2013-05-24 00:15:00,
2013-05-23 20:20:00,47.2,42.7,29.87,NNW,327,10.0,15.0,84,0.00,OVC,,0.13,0.0,WeatherDisplay:10.37,2013-05-24 00:20:00,
2013-05-23 20:30:00,47.1,42.2,29.88,NNW,339,7.0,15.0,83,0.00,OVC,,0.13,0.0,WeatherDisplay:10.37,2013-05-24 00:30:00,
2013-05-23 20:40:00,47.0,42.1,29.88,NNW,333,8.0,16.0,83,0.00,OVC,,0.13,0.0,WeatherDisplay:10.37,2013-05-24 00:40:00,
2013-05-23 20:50:00,47.0,42.1,29.89,NNW,333,10.0,16.0,83,0.00,OVC,,0.13,0.0,WeatherDisplay:10.37,2013-05-24 00:50:00,
2013-05-23 21:00:00,46.8,41.9,29.89,NNW,341,7.0,17.0,83,0.00,OVC,,0.13,0.0,WeatherDisplay:10.37,2013-05-24 01:00:00,
2013-05-23 21:05:00,46.7,42.1,29.89,NNW,337,8.0,20.0,84,0.00,OVC,,0.13,0.0,WeatherDisplay:10.37,2013-05-24 01:05:00,
2013-05-23 21:10:00,46.5,42.2,29.89,NNW,337,8.0,14.0,85,0.00,OVC,,0.13,0.0,WeatherDisplay:10.37,2013-05-24 01:10:00,
2013-05-23 21:15:00,46.1,42.4,29.90,NNW,332,9.0,18.0,87,0.01,RA,,0.13,0.0,WeatherDisplay:10.37,2013-05-24 01:15:00,
2013-05-23 21:20:00,45.6,42.3,29.90,NNW,336,8.0,17.0,88,0.02,RA,,0.15,0.0,WeatherDisplay:10.37,2013-05-24 01:20:00,
2013-05-23 21:30:00,45.0,42.5,29.91,NNW,337,10.0,18.0,91,0.02,RA,,0.17,0.0,WeatherDisplay:10.37,2013-05-24 01:30:00,
2013-05-23 21:35:00,44.9,42.7,29.91,NNW,334,7.0,18.0,92,0.01,RA,,0.18,0.0,WeatherDisplay:10.37,2013-05-24 01:35:00,
2013-05-23 21:40:00,44.6,42.4,29.91,NNW,341,8.0,16.0,92,0.00,RA,,0.18,0.0,WeatherDisplay:10.37,2013-05-24 01:40:00,
2013-05-23 21:50:00,44.0,41.8,29.92,NNW,343,8.0,23.0,92,0.00,RA,,0.19,0.0,WeatherDisplay:10.37,2013-05-24 01:50:00,
2013-05-23 22:00:00,44.0,42.1,29.93,NNW,342,10.0,17.0,93,0.00,OVC,,0.19,0.0,WeatherDisplay:10.37,2013-05-24 02:00:00,
2013-05-23 22:05:00,43.9,42.0,29.93,NNW,342,9.0,17.0,93,0.00,OVC,,0.19,0.0,WeatherDisplay:10.37,2013-05-24 02:05:00,
2013-05-23 22:10:00,43.7,41.8,29.93,NNW,344,13.0,25.0,93,0.01,RA,,0.20,0.0,WeatherDisplay:10.37,2013-05-24 02:10:00,
2013-05-23 22:15:00,43.4,41.5,29.94,North,349,9.0,17.0,93,0.00,RA,,0.20,0.0,WeatherDisplay:10.37,2013-05-24 02:15:00,
2013-05-23 22:20:00,43.4,41.5,29.94,NNW,347,9.0,21.0,93,0.00,OVC,,0.20,0.0,WeatherDisplay:10.37,2013-05-24 02:20:00,
2013-05-23 22:30:00,43.1,41.2,29.95,NNW,343,12.0,20.0,93,0.01,RA,,0.20,0.0,WeatherDisplay:10.37,2013-05-24 02:30:00,
2013-05-23 22:40:00,42.7,40.8,29.95,NNW,346,9.0,18.0,93,0.00,OVC,,0.20,0.0,WeatherDisplay:10.37,2013-05-24 02:40:00,
2013-05-23 22:50:00,42.4,40.5,29.95,NNW,341,9.0,21.0,93,0.00,RA,,0.21,0.0,WeatherDisplay:10.37,2013-05-24 02:50:00,
2013-05-23 23:00:00,42.6,40.7,29.96,NNW,343,8.0,18.0,93,0.01,RA,,0.22,0.0,WeatherDisplay:10.37,2013-05-24 03:00:00,
2013-05-23 23:05:00,42.4,40.5,29.96,NNW,339,9.0,17.0,93,0.00,RA,,0.22,0.0,WeatherDisplay:10.37,2013-05-24 03:05:00,
2013-05-23 23:10:00,42.4,40.5,29.96,NNW,346,9.0,16.0,93,0.00,OVC,,0.22,0.0,WeatherDisplay:10.37,2013-05-24 03:10:00,
2013-05-23 23:20:00,42.4,40.5,29.97,NNW,342,7.0,16.0,93,0.01,RA,,0.24,0.0,WeatherDisplay:10.37,2013-05-24 03:20:00,
2013-05-23 23:25:00,42.4,40.5,29.97,North,351,6.0,13.0,93,0.00,RA,,0.24,0.0,WeatherDisplay:10.37,2013-05-24 03:25:00,
2013-05-23 23:30:00,42.1,39.9,29.98,North,351,10.0,20.0,92,0.00,OVC,,0.24,0.0,WeatherDisplay:10.37,2013-05-24 03:30:00,
2013-05-23 23:35:00,42.0,39.8,29.98,NNW,347,8.0,20.0,92,0.00,OVC,,0.24,0.0,WeatherDisplay:10.37,2013-05-24 03:35:00,
2013-05-23 23:40:00,42.0,39.8,29.98,NNW,341,8.0,18.0,92,0.01,RA,,0.24,0.0,WeatherDisplay:10.37,2013-05-24 03:40:00,
2013-05-23 23:45:00,41.9,39.8,29.98,NNW,338,10.0,17.0,92,0.01,RA,,0.25,0.0,WeatherDisplay:10.37,2013-05-24 03:45:00,
2013-05-23 23:50:00,41.7,39.5,29.98,NNW,341,9.0,20.0,92,0.00,RA,,0.25,0.0,WeatherDisplay:10.37,2013-05-24 03:50:00,